User: anonymous   Login
Location: Seminole
(32.7190°N, 102.6440°W)
Time: 07:53:43
(UTC-05:00)
Language:

Meteor 2-10 - Orbit

View from above orbital plane
View from above orbital plane
View from above satellite
View from above satellite

Ground track
Ground track

The orbit data is extracted from the following two-line orbital elements,

1 14452U 83109A   17145.46923568 +.00000001 +00000-0 -50280-5 0  9990
2 14452 081.1619 099.2533 0092220 086.9168 274.2559 14.26428684745788
Epoch (UTC): 25 May 2017 11:15:41
Eccentricity: 0.0092220
inclination: 81.1619°
perigee height: 737 km
apogee height: 870 km
right ascension of ascending node: 99.2533°
argument of perigee: 86.9168°
revolutions per day: 14.26428684
mean anomaly at epoch: 274.2559°
orbit number at epoch: 74578

The dashed part of the orbit path shows where the satellite is in the earth's shadow,  

DLR